ONEWEB-0050, 45453

Orbit data source: Space-Track

ONEWEB-0050, 45453 is a payload satellite owned by One Web (UK) in LEO that was launched on Sat, 21 Mar 2020 UTC via a SOYUZ-2-1B launch vehicle from the Tyuratam Missile And Space Complex (TTMTR). Payload-class satellites include a variety of spacecraft equipped with specific instruments for various scientific and technological missions. These include communications satellites like Starlink; space stations such as the ISS; scientific satellites like the Hubble; Earth observation satellites from companies like Planet Labs, Umbra, and HawkEye 360; GPS; miniature CubeSats for education and research; and military/defense satellites.

Loading next visibility...
Identifier
45453, 2020-020AF
Orbit
LEO
Last TLE update
15 hours ago
Origin
Manufacturer
One Web
Mission
Partially operational Commercial Communications
Bus & Motor
ARROW, Unknown motor
Mass
148 kg wet, ~140 kg dry
Launch date (UTC)
2020-03-21 (5 years ago)
Launch vehicle
SOYUZ-2-1B
Launch site
Tyuratam Missile And Space Complex (TTMTR)
Object type
Payload
Rocket body
Debris
Shape & HBR
Trap Box + 2 Pan, 5 m
Radar Cross Section
2.957 m², Large (>1 m²)

Expand to show TLE details & history

TLE from 15 hours ago
0 ONEWEB-0050
1 45453U 20020AF  25181.80816183  .00001995  00000-0  20083-3 0  9997
2 45453  87.9991 291.9099 0004430 124.0325 236.1325 14.90712881288060
Epoch: 2025-06-30T19:23Z
TLE epoch observation values (Epoch: 2025-06-30T19:23:45.182Z)
Latitude
Longitude
81.85898°
Altitude
600.582 km
Speed
7.558 km/s
True Right ascension
19h 27m 38s
True Declination
0° 00' 00"
Sunlit
Object was in full shadow at epoch
Visualization orbit readout
Latitude
62.05579°
Longitude
85.45825°
Altitude
604.901 km
Speed
7.564 km/s
Apparent Right ascension
12h 25m 48s
Apparent Declination
37° 19' 15"
Sunlit
Object is in daylight
Visualization observer readout
Local Sidereal Time
21:48:44
Azimuth
329.664° NNW
Elevation
-4.773°
Doppler factor
1
Orbital elements
Apogee altitude
595.659 km
Perigee altitude
589.483 km
Semi-major axis
6,970.708 km
Eccentricity
0.00044
Inclination
87.9991°
RAAN
291.9099°
Arg. of periapsis
124.0325°
True anomaly
Unknown
Mean anomaly
236.1325°
Eccentric anomaly
Unknown
Mean motion
3.7293 °/min
Orbital period
96.53 mins
BSTAR
0.00020083
Loading maneuver chart data...
Loading SW <> Apogee altitude chart data...
Loading historical data...
Loading historical data...
Loading historical data...
Loading historical data...
Loading historical data...
Loading historical data...
Loading historical data...

ONEWEB-0050 Visibility forecast

Observer location: undefined°, undefined°

Span
Click to sort rows by Start time (UTC) header in descending order
Start Az.
Max El. time (UTC)
Max El. Az.
Max El.
End time (UTC)
End Az.
4 mins2025-07-01 18:32:20.670Z49.032° ENE2025-07-01 18:34:20.670Z80.44° E15.256°2025-07-01 18:36:20.670Z111.412° ESE
6 mins2025-07-01 20:08:20.670Z335.648° NNW2025-07-01 20:11:20.670Z269.432° W31.095°2025-07-01 20:14:20.670Z212.381° SW
5 mins2025-07-02 06:59:20.670Z118.131° SE2025-07-02 07:01:20.670Z79.076° E21.615°2025-07-02 07:04:20.670Z30.907° NE
4 mins2025-07-02 08:36:20.670Z245.182° WSW2025-07-02 08:38:20.670Z288.974° WNW22.507°2025-07-02 08:40:20.670Z323.816° NNW
|